This is the latest recevied weather packets stored in our database for station/object N7WSS. If no packets are shown the sender has not sent any weather packets the latest 10 day(s).
| Time | Temp. | Humidity | Pressure | Rain* | Wind** | Luminosity | Snow |
|---|---|---|---|---|---|---|---|
| 1778026028 | 23.33° C | 28% | 1008.4 hPa | 0 mm | - | - | - |
| 1778025726 | 23.33° C | 29% | 1008.3 hPa | 0 mm | - | - | - |
| 1778025423 | 23.33° C | 29% | 1008.4 hPa | 0 mm | - | - | - |
| 1778025121 | 23.33° C | 29% | 1008.2 hPa | 0 mm | - | - | - |
| 1778024817 | 23.33° C | 28% | 1008.3 hPa | 0 mm | - | - | - |
| 1778024515 | 23.33° C | 28% | 1008.1 hPa | 0 mm | - | - | - |
| 1778024211 | 23.33° C | 27% | 1008.2 hPa | 0 mm | - | - | - |
| 1778023909 | 23.89° C | 28% | 1008.2 hPa | 0 mm | - | - | - |
| 1778023606 | 23.33° C | 26% | 1008.1 hPa | 0 mm | - | - | - |
| 1778023304 | 23.89° C | 26% | 1008.2 hPa | 0 mm | - | - | - |
| 1778023000 | 23.33° C | 26% | 1008.3 hPa | 0 mm | - | - | - |
| 1778022699 | 23.33° C | 26% | 1008.2 hPa | 0 mm | - | - | - |
| 1778022397 | 23.89° C | 28% | 1008 hPa | 0 mm | - | - | - |
| 1778022093 | 23.89° C | 29% | 1008 hPa | 0 mm | - | - | - |
| 1778021789 | 23.89° C | 30% | 1008.2 hPa | 0 mm | - | - | - |
| 1778021486 | 23.89° C | 31% | 1008.2 hPa | 0 mm | - | - | - |
| 1778021182 | 23.33° C | 32% | 1008.3 hPa | 0 mm | - | - | - |
| 1778020880 | 24.44° C | 31% | 1008.1 hPa | 0 mm | - | - | - |
| 1778020577 | 23.89° C | 32% | 1008.2 hPa | 0 mm | - | - | - |
| 1778020273 | 23.89° C | 32% | 1008.3 hPa | 0 mm | - | - | - |
| 1778019970 | 23.33° C | 33% | 1008.5 hPa | 0 mm | - | - | - |
| 1778019666 | 23.89° C | 32% | 1008.4 hPa | 0 mm | - | - | - |
| 1778019363 | 24.44° C | 31% | 1008.4 hPa | 0 mm | - | - | - |
| 1778019059 | 24.44° C | 31% | 1008.4 hPa | 0 mm | - | - | - |
| 1778018757 | 23.89° C | 34% | 1008.4 hPa | 0 mm | - | - | - |
* Rain latest hour (hover to see other rain measurements)
** Current wind speed in m/s (hover to see current wind gust speed)